When you browse on this site, cookies collect data to enhance your experience and personalize the content and advertising you see.
Visit our Privacy Policy to learn more. By continuing to use the site, you agree to this use of cookies and data.
  • în România
  • Lista ţărilor
  • Pe 7 zile
  • Temperatura apei
  • Meteo pe hartă
  • Widget-uri
  • user-avatar
    Intrare

    Meteo pe oră la Brecon

    Astăzi, 21 Noiembrie, Joi

    Timp Temperatura Precipitaţii Vânt Presiune Umiditate
    00:00 +3°C° 0 mm 6 m/s 736 mmHg 89%
    01:00 +3°C° 0 mm 6 m/s 736 mmHg 89%
    02:00 +3°C° 0 mm 6 m/s 735 mmHg 89%
    03:00 +3°C° 0 mm 6 m/s 735 mmHg 90%
    04:00 +3°C° 0 mm 6 m/s 735 mmHg 89%
    05:00 +3°C° 0 mm 6 m/s 735 mmHg 88%
    06:00 +3°C° 0 mm 7 m/s 735 mmHg 87%
    07:00 +3°C° 0 mm 7 m/s 734 mmHg 87%
    08:00 +3°C° 0 mm 7 m/s 734 mmHg 87%
    09:00 +3°C° 0 mm 7 m/s 734 mmHg 87%
    10:00 +3°C° 0 mm 7 m/s 734 mmHg 87%
    11:00 +4°C° 0 mm 7 m/s 733 mmHg 87%
    12:00 +4°C° 0 mm 7 m/s 733 mmHg 87%
    13:00 +4°C° 0.1 mm 7 m/s 733 mmHg 87%
    14:00 +4°C° 0.1 mm 7 m/s 732 mmHg 88%
    15:00 +4°C° 0.1 mm 7 m/s 732 mmHg 89%
    16:00 +4°C° 0.9 mm 7 m/s 731 mmHg 91%
    17:00 +4°C° 0.9 mm 6 m/s 731 mmHg 93%
    18:00 +4°C° 0.9 mm 6 m/s 731 mmHg 95%
    19:00 +5°C° 1 mm 5 m/s 730 mmHg 95%
    20:00 +5°C° 1 mm 4 m/s 730 mmHg 95%
    21:00 +5°C° 1 mm 3 m/s 730 mmHg 96%
    22:00 +5°C° 0.4 mm 4 m/s 730 mmHg 96%
    23:00 +5°C° 0.4 mm 4 m/s 729 mmHg 95%

    Mâine, 22 Noiembrie, Vineri

    Timp Temperatura Precipitaţii Vânt Presiune Umiditate
    00:00 +5°C° 0.4 mm 4 m/s 729 mmHg 95%
    01:00 +5°C° 0.2 mm 4 m/s 729 mmHg 94%
    02:00 +5°C° 0.2 mm 4 m/s 728 mmHg 94%
    03:00 +4°C° 0.2 mm 4 m/s 728 mmHg 93%
    04:00 +4°C° 0.2 mm 4 m/s 728 mmHg 93%
    05:00 +4°C° 0.2 mm 3 m/s 728 mmHg 93%
    06:00 +4°C° 0.2 mm 3 m/s 728 mmHg 93%
    07:00 +4°C° 0.2 mm 3 m/s 728 mmHg 93%
    08:00 +4°C° 0.2 mm 4 m/s 728 mmHg 93%
    09:00 +5°C° 0.2 mm 4 m/s 728 mmHg 93%
    10:00 +5°C° 0.2 mm 5 m/s 729 mmHg 89%
    11:00 +5°C° 0.2 mm 6 m/s 729 mmHg 85%
    12:00 +7°C° 0.2 mm 6 m/s 729 mmHg 81%
    13:00 +6°C° 0.7 mm 5 m/s 729 mmHg 85%
    14:00 +6°C° 0.7 mm 5 m/s 729 mmHg 90%
    15:00 +5°C° 0.7 mm 4 m/s 728 mmHg 94%
    16:00 +6°C° 0.9 mm 5 m/s 728 mmHg 93%
    17:00 +5°C° 0.9 mm 6 m/s 728 mmHg 92%
    18:00 +5°C° 0.9 mm 7 m/s 728 mmHg 91%
    19:00 +5°C° 0.7 mm 7 m/s 728 mmHg 91%
    20:00 +5°C° 0.7 mm 7 m/s 729 mmHg 91%
    21:00 +6°C° 0.7 mm 7 m/s 729 mmHg 91%
    22:00 +5°C° 0.4 mm 6 m/s 728 mmHg 91%
    23:00 +5°C° 0.4 mm 6 m/s 728 mmHg 92%

    Poimâine, 23 Noiembrie, Sâmbătă

    Timp Temperatura Precipitaţii Vânt Presiune Umiditate
    00:00 +6°C° 0.4 mm 5 m/s 728 mmHg 93%
    01:00 +6°C° 0.7 mm 5 m/s 728 mmHg 93%
    02:00 +5°C° 0.7 mm 6 m/s 728 mmHg 94%
    03:00 +5°C° 0.7 mm 6 m/s 728 mmHg 95%
    04:00 +5°C° 1.9 mm 6 m/s 727 mmHg 95%
    05:00 +5°C° 1.9 mm 6 m/s 727 mmHg 96%
    06:00 +5°C° 1.9 mm 6 m/s 727 mmHg 96%
    07:00 +5°C° 1.5 mm 6 m/s 728 mmHg 96%
    08:00 +7°C° 1.5 mm 5 m/s 728 mmHg 96%
    09:00 +7°C° 1.5 mm 5 m/s 728 mmHg 96%
    10:00 +7°C° 1 mm 4 m/s 728 mmHg 96%
    11:00 +7°C° 1 mm 4 m/s 728 mmHg 96%
    12:00 +8°C° 1 mm 3 m/s 728 mmHg 97%
    13:00 +8°C° 1.7 mm 3 m/s 728 mmHg 97%
    14:00 +8°C° 1.7 mm 3 m/s 728 mmHg 97%
    15:00 +8°C° 1.7 mm 2 m/s 728 mmHg 98%
    16:00 +8°C° 1.8 mm 3 m/s 728 mmHg 98%
    17:00 +8°C° 1.8 mm 3 m/s 729 mmHg 98%
    18:00 +8°C° 1.8 mm 3 m/s 729 mmHg 98%
    19:00 +8°C° 0.9 mm 3 m/s 730 mmHg 98%
    20:00 +7°C° 0.9 mm 4 m/s 730 mmHg 97%
    21:00 +7°C° 0.9 mm 4 m/s 731 mmHg 97%
    22:00 +7°C° 0.2 mm 5 m/s 731 mmHg 97%
    23:00 +7°C° 0.2 mm 5 m/s 732 mmHg 96%

    24 Noiembrie, Duminică

    Timp Temperatura Precipitaţii Vânt Presiune Umiditate
    00:00 +7°C° 0.2 mm 5 m/s 732 mmHg 96%
    01:00 +7°C° 0.2 mm 5 m/s 733 mmHg 95%
    02:00 +7°C° 0.2 mm 6 m/s 733 mmHg 95%
    03:00 +7°C° 0.2 mm 6 m/s 734 mmHg 95%
    04:00 +5°C° 0.1 mm 6 m/s 734 mmHg 94%
    05:00 +5°C° 0.1 mm 6 m/s 735 mmHg 93%
    06:00 +5°C° 0.1 mm 6 m/s 735 mmHg 92%
    07:00 +5°C° 0 mm 6 m/s 736 mmHg 91%
    08:00 +5°C° 0 mm 6 m/s 736 mmHg 90%
    09:00 +5°C° 0 mm 6 m/s 737 mmHg 89%
    10:00 +7°C° 0 mm 6 m/s 737 mmHg 87%
    11:00 +8°C° 0 mm 6 m/s 737 mmHg 85%
    12:00 +8°C° 0 mm 6 m/s 738 mmHg 84%
    13:00 +8°C° 0 mm 6 m/s 737 mmHg 84%
    14:00 +8°C° 0 mm 5 m/s 737 mmHg 85%
    15:00 +8°C° 0 mm 5 m/s 737 mmHg 86%
    16:00 +7°C° 0.2 mm 5 m/s 737 mmHg 88%
    17:00 +7°C° 0.2 mm 6 m/s 736 mmHg 91%
    18:00 +7°C° 0.2 mm 6 m/s 736 mmHg 93%
    19:00 +8°C° 0.4 mm 7 m/s 735 mmHg 93%
    20:00 +7°C° 0.4 mm 8 m/s 735 mmHg 94%
    21:00 +8°C° 0.4 mm 9 m/s 734 mmHg 94%
    22:00 +8°C° 0.6 mm 10 m/s 733 mmHg 94%
    23:00 +8°C° 0.6 mm 10 m/s 731 mmHg 94%

    25 Noiembrie, Luni

    Timp Temperatura Precipitaţii Vânt Presiune Umiditate
    00:00 +9°C° 0.6 mm 11 m/s 730 mmHg 94%
    01:00 +9°C° 1.5 mm 11 m/s 730 mmHg 92%
    02:00 +9°C° 1.5 mm 12 m/s 730 mmHg 90%
    03:00 +9°C° 1.5 mm 12 m/s 729 mmHg 89%
    04:00 +8°C° 0.1 mm 11 m/s 730 mmHg 87%
    05:00 +8°C° 0.1 mm 10 m/s 730 mmHg 86%
    06:00 +7°C° 0.1 mm 9 m/s 730 mmHg 85%
    07:00 +7°C° 0.2 mm 9 m/s 731 mmHg 86%
    08:00 +7°C° 0.2 mm 9 m/s 731 mmHg 86%
    09:00 +7°C° 0.2 mm 10 m/s 731 mmHg 87%
    10:00 +7°C° 0.2 mm 10 m/s 732 mmHg 85%
    11:00 +8°C° 0.2 mm 10 m/s 732 mmHg 84%
    12:00 +8°C° 0.2 mm 10 m/s 732 mmHg 82%
    13:00 +8°C° 0.1 mm 11 m/s 733 mmHg 83%
    14:00 +8°C° 0.1 mm 11 m/s 733 mmHg 83%
    15:00 +8°C° 0.1 mm 11 m/s 733 mmHg 83%
    16:00 +8°C° 0.1 mm 11 m/s 734 mmHg 83%
    17:00 +7°C° 0.1 mm 11 m/s 734 mmHg 84%
    18:00 +7°C° 0.1 mm 11 m/s 734 mmHg 84%
    19:00 +7°C° 0.1 mm 11 m/s 735 mmHg 84%
    20:00 +7°C° 0.1 mm 11 m/s 735 mmHg 83%
    21:00 +7°C° 0.1 mm 12 m/s 735 mmHg 83%
    22:00 +7°C° 0.1 mm 11 m/s 735 mmHg 83%
    23:00 +7°C° 0.1 mm 11 m/s 736 mmHg 83%

    26 Noiembrie, Marţi

    Timp Temperatura Precipitaţii Vânt Presiune Umiditate
    00:00 +7°C° 0.1 mm 11 m/s 736 mmHg 83%
    01:00 +7°C° 0.1 mm 10 m/s 736 mmHg 84%
    02:00 +7°C° 0.1 mm 9 m/s 737 mmHg 85%
    03:00 +7°C° 0.1 mm 8 m/s 737 mmHg 86%
    04:00 +6°C° 0 mm 8 m/s 737 mmHg 86%
    05:00 +6°C° 0 mm 7 m/s 737 mmHg 86%
    06:00 +6°C° 0 mm 7 m/s 737 mmHg 87%
    07:00 +7°C° 0 mm 6 m/s 737 mmHg 89%
    08:00 +7°C° 0 mm 5 m/s 737 mmHg 91%
    09:00 +7°C° 0 mm 4 m/s 737 mmHg 93%
    10:00 +8°C° 0.1 mm 4 m/s 737 mmHg 94%
    11:00 +10°C° 0.1 mm 4 m/s 737 mmHg 94%
    12:00 +10°C° 0.1 mm 3 m/s 737 mmHg 94%
    13:00 +10°C° 0.1 mm 3 m/s 736 mmHg 93%
    14:00 +10°C° 0.1 mm 3 m/s 736 mmHg 92%
    15:00 +11°C° 0.1 mm 3 m/s 735 mmHg 91%
    16:00 +10°C° 0.4 mm 4 m/s 734 mmHg 93%
    17:00 +9°C° 0.4 mm 5 m/s 734 mmHg 95%
    18:00 +9°C° 0.4 mm 6 m/s 733 mmHg 96%
    19:00 +10°C° 1.1 mm 6 m/s 732 mmHg 96%
    20:00 +10°C° 1.1 mm 7 m/s 731 mmHg 96%
    21:00 +10°C° 1.1 mm 7 m/s 730 mmHg 96%
    22:00 +10°C° 3.1 mm 7 m/s 729 mmHg 97%
    23:00 +10°C° 3.1 mm 6 m/s 729 mmHg 97%
    Arată mai mult